TimeCST,TemperatureF,Dew PointF,Humidity,Sea Level PressureIn,VisibilityMPH,Wind Direction,Wind SpeedMPH,Gust SpeedMPH,PrecipitationIn,Events,Conditions,WindDirDegrees,DateUTC
12:15 AM,39.2,28.4,65,29.87,10.0,SSW,12.7,-,N/A,,Scattered Clouds,200,2013-01-09 06:15:00
12:35 AM,41.0,28.4,61,29.86,10.0,SSW,15.0,18.4,N/A,,Clear,210,2013-01-09 06:35:00
12:55 AM,41.0,28.4,61,29.85,10.0,SSW,17.3,25.3,N/A,,Clear,210,2013-01-09 06:55:00
1:15 AM,41.0,28.4,61,29.86,10.0,SW,12.7,24.2,N/A,,Clear,220,2013-01-09 07:15:00
1:35 AM,39.2,28.4,65,29.85,10.0,SW,18.4,25.3,N/A,,Mostly Cloudy,220,2013-01-09 07:35:00
1:55 AM,39.2,28.4,65,29.86,10.0,SW,16.1,27.6,N/A,,Overcast,220,2013-01-09 07:55:00
2:15 AM,39.2,28.4,65,29.85,10.0,WSW,18.4,27.6,N/A,,Overcast,240,2013-01-09 08:15:00
2:35 AM,39.2,28.4,65,29.85,10.0,WSW,17.3,23.0,N/A,,Scattered Clouds,240,2013-01-09 08:35:00
2:55 AM,39.2,28.4,65,29.85,10.0,WSW,19.6,25.3,N/A,,Clear,240,2013-01-09 08:55:00
3:15 AM,37.4,28.4,70,29.85,10.0,WSW,17.3,25.3,N/A,,Clear,240,2013-01-09 09:15:00
3:35 AM,37.4,28.4,70,29.85,10.0,WSW,23.0,29.9,N/A,,Clear,250,2013-01-09 09:35:00
3:55 AM,37.4,28.4,70,29.85,10.0,West,18.4,32.2,N/A,,Clear,260,2013-01-09 09:55:00
4:15 AM,37.4,28.4,70,29.86,10.0,West,23.0,29.9,N/A,,Clear,260,2013-01-09 10:15:00
4:35 AM,35.6,26.6,70,29.87,10.0,West,28.8,33.4,N/A,,Mostly Cloudy,260,2013-01-09 10:35:00
4:55 AM,35.6,28.4,75,29.88,10.0,West,26.5,34.5,N/A,,Overcast,260,2013-01-09 10:55:00
5:15 AM,35.6,26.6,70,29.90,10.0,West,21.9,32.2,N/A,,Overcast,260,2013-01-09 11:15:00
5:35 AM,35.6,28.4,75,29.90,10.0,West,18.4,28.8,N/A,,Partly Cloudy,260,2013-01-09 11:35:00
5:55 AM,35.6,28.4,75,29.92,10.0,WSW,21.9,26.5,N/A,,Clear,250,2013-01-09 11:55:00
6:15 AM,35.6,28.4,75,29.93,10.0,WSW,16.1,26.5,N/A,,Clear,250,2013-01-09 12:15:00
6:35 AM,35.6,26.6,70,29.95,10.0,WSW,17.3,26.5,N/A,,Clear,250,2013-01-09 12:35:00
7:15 AM,33.8,26.6,75,29.98,10.0,WSW,18.4,25.3,N/A,,Clear,240,2013-01-09 13:15:00
7:35 AM,33.8,26.6,75,29.98,10.0,WSW,20.7,27.6,N/A,,Clear,250,2013-01-09 13:35:00
7:55 AM,33.8,26.6,75,29.98,10.0,WSW,15.0,24.2,N/A,,Clear,240,2013-01-09 13:55:00
8:15 AM,33.8,26.6,75,29.98,10.0,WSW,15.0,24.2,N/A,,Clear,240,2013-01-09 14:15:00
8:35 AM,33.8,26.6,75,29.98,10.0,WSW,17.3,24.2,N/A,,Clear,240,2013-01-09 14:35:00
8:55 AM,35.6,26.6,70,29.99,10.0,WSW,23.0,33.4,N/A,,Clear,240,2013-01-09 14:55:00
9:15 AM,35.6,24.8,65,29.98,10.0,WSW,24.2,33.4,N/A,,Clear,250,2013-01-09 15:15:00
9:35 AM,35.6,24.8,65,29.99,10.0,WSW,27.6,35.7,N/A,,Clear,250,2013-01-09 15:35:00
9:55 AM,35.6,24.8,65,30.00,10.0,WSW,27.6,38.0,N/A,,Clear,250,2013-01-09 15:55:00
10:15 AM,35.6,24.8,65,30.00,10.0,WSW,25.3,39.1,N/A,,Clear,250,2013-01-09 16:15:00
10:35 AM,37.4,24.8,60,30.01,10.0,WSW,26.5,35.7,N/A,,Clear,250,2013-01-09 16:35:00
10:55 AM,37.4,24.8,60,30.01,10.0,WSW,24.2,39.1,N/A,,Clear,250,2013-01-09 16:55:00
11:15 AM,37.4,24.8,60,30.02,10.0,WSW,27.6,38.0,N/A,,Clear,250,2013-01-09 17:15:00
11:55 AM,37.4,24.8,60,30.03,10.0,WSW,27.6,34.5,N/A,,Clear,250,2013-01-09 17:55:00
12:15 PM,37.4,24.8,60,30.05,10.0,WSW,20.7,32.2,N/A,,Clear,240,2013-01-09 18:15:00
12:35 PM,37.4,24.8,60,30.06,10.0,WSW,19.6,32.2,N/A,,Clear,250,2013-01-09 18:35:00
12:55 PM,37.4,24.8,60,30.06,10.0,WSW,20.7,31.1,N/A,,Clear,250,2013-01-09 18:55:00
1:15 PM,39.2,24.8,56,30.07,10.0,West,19.6,31.1,N/A,,Clear,260,2013-01-09 19:15:00
1:35 PM,39.2,24.8,56,30.10,10.0,West,17.3,25.3,N/A,,Clear,260,2013-01-09 19:35:00
1:55 PM,39.2,24.8,56,30.12,10.0,West,18.4,27.6,N/A,,Clear,260,2013-01-09 19:55:00
2:15 PM,39.2,23.0,52,30.14,10.0,West,21.9,28.8,N/A,,Clear,270,2013-01-09 20:15:00
2:35 PM,39.2,23.0,52,30.16,10.0,West,23.0,31.1,N/A,,Clear,260,2013-01-09 20:35:00
2:55 PM,39.2,23.0,52,30.18,10.0,West,18.4,26.5,N/A,,Clear,260,2013-01-09 20:55:00
3:15 PM,39.2,23.0,52,30.19,10.0,West,15.0,20.7,N/A,,Clear,260,2013-01-09 21:15:00
3:35 PM,39.2,23.0,52,30.21,10.0,West,15.0,24.2,N/A,,Clear,260,2013-01-09 21:35:00
3:55 PM,39.2,21.2,49,30.24,10.0,WSW,15.0,23.0,N/A,,Clear,250,2013-01-09 21:55:00
4:15 PM,37.4,23.0,56,30.25,10.0,WSW,17.3,-,N/A,,Clear,250,2013-01-09 22:15:00
4:35 PM,37.4,23.0,56,30.26,10.0,West,12.7,18.4,N/A,,Clear,270,2013-01-09 22:35:00
4:55 PM,37.4,21.2,52,30.28,10.0,West,12.7,18.4,N/A,,Clear,260,2013-01-09 22:55:00
5:15 PM,37.4,21.2,52,30.30,10.0,West,13.8,-,N/A,,Clear,260,2013-01-09 23:15:00
5:35 PM,35.6,21.2,56,30.31,10.0,West,9.2,-,N/A,,Clear,260,2013-01-09 23:35:00
5:55 PM,35.6,21.2,56,30.33,10.0,WSW,10.4,-,N/A,,Clear,250,2013-01-09 23:55:00
6:15 PM,35.6,21.2,56,30.35,10.0,West,9.2,-,N/A,,Clear,260,2013-01-10 00:15:00
6:35 PM,35.6,21.2,56,30.36,10.0,West,6.9,-,N/A,,Clear,260,2013-01-10 00:35:00
6:55 PM,33.8,21.2,60,30.38,10.0,WSW,9.2,-,N/A,,Clear,240,2013-01-10 00:55:00
7:35 PM,33.8,21.2,60,30.38,10.0,West,8.1,-,N/A,,Clear,280,2013-01-10 01:35:00
7:55 PM,33.8,19.4,56,30.40,10.0,West,6.9,-,N/A,,Clear,260,2013-01-10 01:55:00
8:15 PM,33.8,19.4,56,30.40,10.0,West,6.9,-,N/A,,Clear,260,2013-01-10 02:15:00
8:35 PM,32.0,19.4,60,30.41,10.0,West,6.9,-,N/A,,Clear,260,2013-01-10 02:35:00
8:55 PM,32.0,19.4,60,30.42,10.0,West,6.9,-,N/A,,Clear,270,2013-01-10 02:55:00
9:15 PM,32.0,19.4,60,30.42,10.0,West,9.2,-,N/A,,Clear,270,2013-01-10 03:15:00
9:35 PM,30.2,19.4,64,30.41,10.0,West,9.2,-,N/A,,Clear,280,2013-01-10 03:35:00
9:55 PM,30.2,19.4,64,30.42,10.0,West,5.8,-,N/A,,Clear,260,2013-01-10 03:55:00
10:15 PM,30.2,17.6,60,30.41,10.0,WNW,9.2,-,N/A,,Clear,290,2013-01-10 04:15:00
10:35 PM,30.2,19.4,64,30.42,10.0,West,6.9,-,N/A,,Clear,280,2013-01-10 04:35:00
10:55 PM,28.4,17.6,64,30.41,10.0,WNW,6.9,-,N/A,,Clear,290,2013-01-10 04:55:00
11:15 PM,28.4,17.6,64,30.41,10.0,West,5.8,-,N/A,,Clear,280,2013-01-10 05:15:00
11:35 PM,28.4,17.6,64,30.40,10.0,WSW,6.9,-,N/A,,Clear,250,2013-01-10 05:35:00
11:55 PM,28.4,17.6,64,30.40,10.0,West,8.1,-,N/A,,Clear,260,2013-01-10 05:55:00